Regional Weather Roundup
Issued by NWS

Home | Current Version | Previous Version | Graphics & Text | Print | Product List | Glossary Off
Versions: 1 2 3 4 5 6 7 8 9 10 11 12 13 14 15 16 17 18 19 20 21 22 23 24 25 26 27 28 29 30 31 32 33 34 35 36 37 38 39 40 41 42 43 44 45 46 47 48 49 50

000
ASUS43 KLSX 290207
RWRMO

WEATHER SUMMARY FOR MISSOURI
NATIONAL WEATHER SERVICE SPRINGFIELD MO
900 PM CDT SUN MAY 28 2017

NOTE: "FAIR" INDICATES FEW OR NO CLOUDS BELOW 12,000 FEET WITH NO
       SIGNIFICANT WEATHER AND/OR OBSTRUCTIONS TO VISIBILITY.
       CURRENT SKY AND/OR WEATHER CONDITIONS ARE NOT AVAILABLE FOR
       CHILLICOTHE AND FARMINGTON.

MOZ001>031-035>038-043-044-053-054-290300-
...NORTHERN AND WESTERN MISSOURI...

CITY           SKY/WX    TMP DP  RH WIND       PRES   REMARKS
KANSAS CTY INT PTCLDY    68  52  56 SW7       29.89F
KANSAS C DTWN  CLEAR     74  49  41 SW5       29.88F
LEE`S SUMMIT   CLEAR     71  52  50 SW5       29.90F
ST JOSEPH      CLEAR     68  53  58 NW8       29.89R
CHILLICOTHE      N/A     69  53  56 CALM      29.87S
KIRKSVILLE     PTCLDY    68  49  50 SW5       29.86S

$$
MOZ066>068-077>081-088>096-101>105-290300-
...SOUTHWEST MISSOURI...

CITY           SKY/WX    TMP DP  RH WIND       PRES   REMARKS
SPRINGFIELD    CLEAR     66  58  75 S5        29.95R
JOPLIN         CLEAR     70  55  59 CALM      29.94F
BRANSON        CLEAR     66  55  68 CALM      30.00R

$$
MOZ032>034-039>042-045>050-055>058-069>072-290300-
...CENTRAL MISSOURI...

CITY           SKY/WX    TMP DP  RH WIND       PRES   REMARKS
COLUMBIA       CLEAR     71  57  61 W3        29.89S
JEFFERSON CITY CLEAR     75  57  53 N3        29.87S
ROLLA          CLEAR     61  57  87 S8        29.90F
SEDALIA        CLEAR     71  54  54 W6        29.91F
WHITEMAN AFB   CLEAR     71  53  52 W5        29.89F
WARRENSBURG    CLEAR     68  52  56 SW5       29.90S
OSAGE BEACH    CLEAR     64  60  87 CALM      29.91F

$$
MOZ051-052-059>065-290300-
...EAST CENTRAL MISSOURI...

CITY           SKY/WX    TMP DP  RH WIND       PRES   REMARKS
ST LOUIS INTL  PTCLDY    74  55  51 SW8       29.87S
SPIRIT OF STL  PTCLDY    65  60  84 W5        29.85F
ST CHARLES     CLEAR     73  55  53 W7        29.84F

$$
MOZ072>076-082>087-097>100-106>115-290300-
...SOUTH CENTRAL AND SOUTHEAST MISSOURI...

CITY           SKY/WX    TMP DP  RH WIND       PRES   REMARKS
CAPE GIRARDEAU CLEAR     69  63  81 S5        29.90R
FARMINGTON     CLEAR     64  59  83 S5        29.95R
POPLAR BLUFF   CLEAR     70  65  84 W3        29.91R
WEST PLAINS    CLEAR     64  58  80 NW3       29.97R

$$



USA.gov is the U.S. government's official web portal to all federal, state and local government web resources and services.